Dunkirk, NY

10:32 AM EDT on April 23, 2017 (GMT -0400)
Chautauqua County-Dunkirk

Weather History for KDKK - September, 2014

Change the Weather History Date:

Tuesday, September 16, 2014

  Actual Average Record
Temperature  
Mean Temperature 58 °F -  
Max Temperature 63 °F 70 °F 92 °F (1939)
Min Temperature 53 °F 53 °F 35 °F (1964)
Degree Days  
Heating Degree Days 8    
Growing Degree Days 8 (Base 50)    
Moisture  
Dew Point 50 °F    
Average Humidity 78    
Maximum Humidity 97    
Minimum Humidity 53    
Precipitation  
Precipitation 0.20 in - - ()
Sea Level Pressure  
Sea Level Pressure 30.08 in    
Wind  
Wind Speed 7 mph (WSW)    
Max Wind Speed 12 mph    
Max Gust Speed 21 mph    
Visibility 10 miles    
Events Rain    
Averages and records for this station are not official NWS values.
T = Trace of Precipitation, MM = Missing Value Source: NWS Daily Summary

Daily Weather History Graph

Daily Weather History Graph

Search for Another Location

Airport or City:

Trip Planner

Search our weather history database for the weather conditions in past years. The results will help you decide how hot, cold, wet, or windy it might be!

Date:

Astronomy

Sep. 16, 2014 Rise Set
Actual Time 6:58 AM EDT 7:25 PM EDT
Civil Twilight 6:29 AM EDT 7:53 PM EDT
Nautical Twilight 5:56 AM EDT 8:26 PM EDT
Astronomical Twilight 5:22 AM EDT 9:00 PM EDT
Moon 12:01 AM EDT (9/16) 2:52 PM EDT (9/16)
Length of Visible Light 13h 23m
Length of Day
12h 27m
Last Quarter, 44% of the Moon is Illuminated
Sep 16
Last Quarter
Sep 24
New
Oct 1
First Quarter
Oct 8
Full
Oct 15
Last Quarter

Hourly Weather History & Observations

Time (EDT) Temp. Dew Point Humidity Pressure Visibility Wind Dir Wind Speed Gust Speed Precip Events Conditions
12:10 AM 55.9 °F 53.1 °F 90% 30.07 in 5.0 mi West 9.2 mph - 0.07 in Rain Rain
12:46 AM 55.0 °F 53.1 °F 93% 30.06 in 10.0 mi West 4.6 mph - 0.10 in Rain Light Rain
12:53 AM 55.0 °F 53.1 °F 93% 30.06 in 10.0 mi West 3.5 mph - 0.11 in Rain Light Rain
1:16 AM 55.0 °F 53.1 °F 93% 30.06 in 6.0 mi South 3.5 mph - 0.02 in Rain Light Rain
1:53 AM 54.0 °F 53.1 °F 97% 30.05 in 9.0 mi South 4.6 mph - 0.05 in Rain Light Rain
2:53 AM 54.0 °F 53.1 °F 97% 30.04 in 9.0 mi South 4.6 mph - 0.01 in Rain Light Rain
3:06 AM 54.0 °F 53.1 °F 97% 30.05 in 9.0 mi South 4.6 mph - 0.00 in Rain Light Rain
3:38 AM 54.0 °F 53.1 °F 97% 30.04 in 10.0 mi SSW 5.8 mph - 0.00 in   Overcast
3:53 AM 54.0 °F 52.0 °F 93% 30.04 in 10.0 mi SSW 6.9 mph - 0.00 in   Overcast
4:53 AM 54.0 °F 52.0 °F 93% 30.05 in 10.0 mi SSW 5.8 mph - N/A   Overcast
5:53 AM 54.0 °F 52.0 °F 93% 30.06 in 10.0 mi South 4.6 mph - 0.03 in   Overcast
6:53 AM 55.9 °F 52.0 °F 87% 30.08 in 10.0 mi NNW 10.4 mph - N/A   Overcast
7:02 AM 55.9 °F 51.1 °F 84% 30.08 in 10.0 mi NNW 8.1 mph - N/A   Overcast
7:53 AM 55.9 °F 50.0 °F 80% 30.09 in 10.0 mi NW 6.9 mph - N/A   Overcast
8:53 AM 55.9 °F 50.0 °F 80% 30.10 in 10.0 mi WNW 10.4 mph - N/A   Overcast
9:10 AM 57.0 °F 48.9 °F 74% 30.10 in 10.0 mi NW 10.4 mph - N/A   Overcast
9:53 AM 59.0 °F 50.0 °F 72% 30.12 in 10.0 mi NNW 8.1 mph - N/A   Overcast
10:53 AM 59.0 °F 50.0 °F 72% 30.12 in 10.0 mi WNW 11.5 mph - N/A   Mostly Cloudy
11:11 AM 59.0 °F 48.9 °F 69% 30.11 in 10.0 mi North 9.2 mph - N/A   Scattered Clouds
11:53 AM 60.1 °F 46.9 °F 62% 30.11 in 10.0 mi WNW 11.5 mph - N/A   Clear
12:53 PM 61.0 °F 46.9 °F 60% 30.10 in 10.0 mi WNW 9.2 mph 17.3 mph N/A   Clear
1:53 PM 61.0 °F 44.1 °F 54% 30.10 in 10.0 mi West 11.5 mph - N/A   Clear
2:53 PM 62.1 °F 45.0 °F 53% 30.09 in 10.0 mi WNW 11.5 mph 20.7 mph N/A   Clear
3:53 PM 62.1 °F 45.0 °F 53% 30.08 in 10.0 mi West 10.4 mph 17.3 mph N/A   Clear
4:53 PM 62.1 °F 45.0 °F 53% 30.07 in 10.0 mi West 10.4 mph - N/A   Clear
5:53 PM 61.0 °F 45.0 °F 56% 30.07 in 10.0 mi SW 10.4 mph - N/A   Clear
6:53 PM 59.0 °F 45.0 °F 60% 30.08 in 10.0 mi SW 6.9 mph - N/A   Clear
7:53 PM 54.0 °F 48.0 °F 80% 30.08 in 10.0 mi SSW 5.8 mph - N/A   Partly Cloudy
8:53 PM 53.1 °F 46.9 °F 80% 30.08 in 10.0 mi SSW 5.8 mph - N/A   Mostly Cloudy
10:53 PM 55.0 °F 48.0 °F 77% 30.07 in 10.0 mi SSW 6.9 mph - N/A   Mostly Cloudy